TimeAKST,TemperatureF,Dew PointF,Humidity,Sea Level PressureIn,VisibilityMPH,Wind Direction,Wind SpeedMPH,Gust SpeedMPH,PrecipitationIn,Events,Conditions,WindDirDegrees,DateUTC
12:53 AM,-11.0,-16.1,78,30.32,10.0,Calm,Calm,-,N/A,,Clear,0,2014-01-31 09:53:00
1:53 AM,-13.0,-18.0,78,30.33,10.0,Calm,Calm,-,N/A,,Clear,0,2014-01-31 10:53:00
2:53 AM,-11.9,-17.0,78,30.34,10.0,Calm,Calm,-,N/A,,Clear,0,2014-01-31 11:53:00
3:53 AM,-14.1,-18.0,82,30.34,10.0,Calm,Calm,-,N/A,,Clear,0,2014-01-31 12:53:00
4:53 AM,-13.0,-18.9,75,30.34,10.0,Calm,Calm,-,N/A,,Clear,0,2014-01-31 13:53:00
5:53 AM,-14.1,-18.9,79,30.35,10.0,Calm,Calm,-,N/A,,Clear,0,2014-01-31 14:53:00
6:53 AM,-15.0,-20.0,78,30.36,10.0,Calm,Calm,-,N/A,,Clear,0,2014-01-31 15:53:00
7:53 AM,-15.0,-20.0,78,30.36,10.0,Calm,Calm,-,N/A,,Clear,0,2014-01-31 16:53:00
8:53 AM,-16.1,-20.9,79,30.37,10.0,Calm,Calm,-,N/A,,Partly Cloudy,0,2014-01-31 17:53:00
9:53 AM,-14.1,-18.9,79,30.37,10.0,Calm,Calm,-,N/A,,Partly Cloudy,0,2014-01-31 18:53:00
10:53 AM,-14.1,-18.9,79,30.37,10.0,Calm,Calm,-,N/A,,Partly Cloudy,0,2014-01-31 19:53:00
11:53 AM,-9.0,-13.0,83,30.38,10.0,Calm,Calm,-,N/A,,Scattered Clouds,0,2014-01-31 20:53:00
12:53 PM,-0.9,-6.0,79,30.38,10.0,Calm,Calm,-,N/A,,Mostly Cloudy,0,2014-01-31 21:53:00
1:53 PM,-0.0,-4.0,83,30.38,10.0,Calm,Calm,-,N/A,,Mostly Cloudy,0,2014-01-31 22:53:00
2:53 PM,3.9,-0.0,84,30.38,10.0,NNE,3.5,-,N/A,,Overcast,30,2014-01-31 23:53:00
3:53 PM,8.1,3.9,83,30.37,10.0,Calm,Calm,-,N/A,,Overcast,0,2014-02-01 00:53:00
4:53 PM,8.1,5.0,87,30.38,10.0,Calm,Calm,-,N/A,,Overcast,0,2014-02-01 01:53:00
5:53 PM,3.0,-0.0,87,30.39,10.0,Calm,Calm,-,N/A,,Overcast,0,2014-02-01 02:53:00
6:53 PM,5.0,1.9,87,30.39,10.0,Calm,Calm,-,N/A,,Overcast,0,2014-02-01 03:53:00
7:53 PM,7.0,3.0,84,30.39,10.0,Calm,Calm,-,N/A,,Overcast,0,2014-02-01 04:53:00
8:16 PM,6.8,3.2,85,30.31,10.0,Calm,Calm,-,N/A,,Overcast,0,2014-02-01 05:16:00
8:53 PM,9.0,6.1,88,30.39,10.0,Calm,Calm,-,N/A,,Overcast,0,2014-02-01 05:53:00
9:53 PM,10.9,8.1,88,30.39,10.0,Calm,Calm,-,N/A,,Overcast,0,2014-02-01 06:53:00
10:53 PM,10.0,7.0,87,30.40,10.0,Calm,Calm,-,N/A,,Overcast,0,2014-02-01 07:53:00
11:24 PM,10.4,6.8,85,30.33,10.0,Calm,Calm,-,N/A,,Overcast,0,2014-02-01 08:24:00
11:53 PM,10.0,7.0,87,30.41,10.0,Calm,Calm,-,N/A,Snow,Light Snow,0,2014-02-01 08:53:00